Regional Weather Roundup
Issued by NWS State College, PA

Home | Current Version | Previous Version | Text Only | Print | Product List | Glossary On
Versions: 1 2 3 4 5 6 7 8 9 10 11 12 13 14 15 16 17 18 19 20 21 22 23 24 25 26 27 28 29 30 31 32 33 34 35 36 37 38 39 40 41 42 43 44 45 46 47 48 49 50
000
ASUS41 KCTP 012210
RWRCTP

REGIONAL WEATHER ROUNDUP
NATIONAL WEATHER SERVICE STATE COLLEGE PA
600 PM EDT FRI AUG 01 2014

Note: "fair" indicates few or no clouds below 12,000 feet with no
significant weather and/or obstructions to visibility.

* = STATION THAT DOES NOT REPORT PRECIPITATION /E.G. RAIN...SNOW...ETC/
    THUNDER OR FOG.

PAZ002>004-007>009-013>016-020>023-029>032-012300-
WESTERN PENNSYLVANIA

CITY           SKY/WX    TMP DP  RH WIND       PRES   REMARKS
ERIE           SUNNY     79  59  50 N5        30.10S
MEADVILLE      SUNNY     80  58  46 VRB3      30.12S
FRANKLIN*      SUNNY     79  59  50 SE7       30.13F
NEW CASTLE     FAIR      82  60  47 CALM      30.10S
BEAVER COUNTY  MOSUNNY   81  54  39 S6        30.10F
BUTLER*        SUNNY     81  61  50 E6        30.12S
PITTSBURGH INT MOSUNNY   82  55  39 E5        30.09F
PITTSBURGH     MOSUNNY   76  61  59 SE9       30.10S
INDIANA*       PTSUNNY   77  63  61 SE6       30.16S
LATROBE        PTSUNNY   77  64  65 SE8       30.12F
WASHINGTON CO* PTSUNNY   79  63  57 E15G23    30.11S
$$

PAZ004>006-010>012-017>019-024>028-033>037-041-042-045-046-049>053-012300-
CENTRAL PENNSYLVANIA

CITY           SKY/WX    TMP DP  RH WIND       PRES   REMARKS
BRADFORD       SUNNY     77  55  46 CALM      30.15F
DUBOIS         MOSUNNY   77  60  55 S6        30.14F
CLEARFIELD     MOSUNNY   76  61  59 VRB5      30.14F
JOHNSTOWN      SUNNY     72  57  59 SE13G18   30.17F
ALTOONA        SUNNY     77  60  55 S9        30.16F
STATE COLLEGE  PTSUNNY   73  66  78 CALM      30.15F
WILLIAMSPORT   PTSUNNY   79  64  60 S14G25    30.11F
SELINSGROVE    CLOUDY    74  63  68 S5        30.16S
FT INDIANTOWN  CLOUDY    72  69  93 VRB1      30.17F
CAPITAL CITY   CLOUDY    75  65  70 S6        30.16S
HARRISBURG     CLOUDY    76  67  73 SE3       30.16S
YORK           CLOUDY    76  64  66 S5        30.17S
$$

PAZ038>040-043-044-047-048-054-055-060>062-067>071-012300-
EASTERN PENNSYLVANIA

CITY           SKY/WX    TMP DP  RH WIND       PRES   REMARKS
SCRANTON       CLOUDY    72  66  81 E3        30.16F
MOUNT POCONO   CLOUDY    70  62  76 SE15G22   30.23S
ALLENTOWN      CLOUDY    72  63  73 S10G25    30.20R
QUAKERTOWN*    CLOUDY    68  66  94 CALM      30.22S
READING        CLOUDY    74  64  71 NE3       30.18R
LANCASTER      CLOUDY    72  67  84 SE10      30.18S
COATESVILLE    CLOUDY    68  68 100 CALM      30.21S
POTTSTOWN      CLOUDY    71  65  81 CALM      30.22S
BLUE BELL      CLOUDY    72  68  88 CALM      30.19F
DOYLESTOWN     CLOUDY    68  67  96 S3        30.20F
WILLOW GROVE   NOT AVBL
NORTH PHILA    CLOUDY    73  65  75 E3        30.20F
PHILADELPHIA   CLOUDY    73  67  81 SE6       30.19S
$$



USA.gov is the U.S. government's official web portal to all federal, state and local government web resources and services.